Location: Caribou
(46.8667°N, 68.0167°W)
Time: 16:38:40
(UTC-04:00)

Daily predictions for brighter satellites

Satellite Brightness Start Highest point End
(mag) Time Altitude Azimuth Time Altitude Azimuth Time Altitude Azimuth
Spot 2 Rocket 4.1 18:34:15 10° SE 18:38:46 35° ENE 18:43:19 10° N
Cosmos 1603 4.1 18:35:37 10° S 18:40:59 43° ESE 18:46:23 10° NE
CZ-2C R/B 3.8 18:36:36 10° S 18:41:13 43° W 18:45:45 10° NNW
In-Cosmos 22 4.3 18:38:08 10° N 18:43:55 71° ENE 18:49:38 10° SSE
FREGAT/IRIS 3.3 18:41:31 10° SE 18:44:22 36° ENE 18:47:15 10° N
Meteor 1-24 Rocket 4.4 18:42:20 10° NNW 18:47:51 59° W 18:53:08 10° S
CZ-4C R/B 3.6 18:43:09 10° WSW 18:48:21 40° NW 18:54:17 10° NNE
Meteor 1-22 Rocket 4.2 18:43:10 10° SSW 18:48:28 81° W 18:53:48 10° N
HJ-1C 4.1 18:50:29 10° SE 18:53:33 34° ENE 18:56:39 10° N
Cosmos 1674 3.5 18:52:00 10° N 18:55:32 32° ENE 18:59:02 10° SE
Cosmos 1953 2.3 18:53:28 10° S 18:57:22 57° E 19:01:18 10° NNE
ATLAS 3B R/B 4.4 18:51:09 10° W 18:57:47 32° NNW 19:04:12 10° NNE
Helios 1B rocket 3.3 18:54:36 10° NE 18:58:10 28° E 19:01:43 10° SSE
Cosmos 1743 Rocket 3.8 18:54:34 10° N 18:58:54 49° ENE 19:03:10 10° SSE
Spot 1 4.3 18:54:29 10° SSE 18:58:57 54° ENE 19:03:11 10° N
Cosmos 2333 Rocket 4.3 18:56:29 10° WSW 19:01:21 27° NW 19:06:14 10° N
ATLAS 5 CENTAUR R/B 2.0 18:56:42 10° SW 19:01:33 84° NW 19:06:53 10° NE
Cosmos 1470 3.6 19:01:15 10° SSE 19:04:32 27° E 19:07:51 10° NNE
Resurs 1-3 4.0 19:02:40 10° SE 19:06:50 43° ENE 19:11:00 10° N
CZ-4B DEB 4.0 19:06:34 14° ESE 19:08:31 24° ENE 19:11:13 10° NNE
Meteor 2-12 Rocket 4.4 19:05:26 10° S 19:11:32 69° E 19:17:39 10° NNE
Cosmos 1544 3.1 19:09:17 10° S 19:12:58 58° E 19:16:40 10° NNE
SAR-Lupe-4 4.3 19:09:46 10° S 19:13:16 56° WSW 19:16:49 10° NNW
Cosmos 2237 Rocket 4.4 19:09:40 10° WSW 19:14:21 26° NW 19:19:03 10° N
Resurs 01 Rocket 1.6 19:12:47 10° SSE 19:17:12 70° ENE 19:21:39 10° N
METEOR-M 4.1 19:12:24 10° SSE 19:17:45 83° ENE 19:23:09 10° NNW
COSMO-SKYMED 1 3.6 19:14:10 10° N 19:18:22 49° WNW 19:22:32 10° SW
Cosmos 2058 4.2 19:15:16 10° NNE 19:18:27 21° ENE 19:19:29 19° E
USA 186 3.7 19:23:55 11° NNE 19:23:55 11° NNE 19:24:02 10° NNE
SL-8 R/B 3.8 19:18:16 10° SW 19:22:58 58° SSE 19:26:10 20° E
NOSS 3-2 (A) 4.2 19:17:30 10° WSW 19:23:35 56° NW 19:30:20 10° NE
SJ-6B 3.7 19:20:41 10° S 19:24:38 53° W 19:28:41 10° NNW
ALOS 2.5 19:20:51 10° SE 19:25:21 49° ENE 19:29:52 10° N
FengYun 1-2 T 4.2 19:20:07 10° SSE 19:25:35 69° ENE 19:31:03 10° N
Nadezhda 4 Rocket 4.0 19:19:22 10° N 19:25:41 84° E 19:31:54 10° S
ASTEX 1 3.6 19:24:49 10° NNE 19:29:33 46° E 19:34:14 10° SSE
Cosmos 1110 Rocket 4.3 19:25:18 10° NNW 19:30:27 47° ENE 19:34:02 19° SE
Cosmos 2151 3.3 19:28:04 10° N 19:32:06 41° ENE 19:34:34 20° SE
ATLAS CENTAUR R/B 4.1 19:27:06 10° SW 19:32:56 88° NW 19:53:07 10° NE
GP-B 3.6 19:31:08 10° NNE 19:35:15 36° E 19:37:51 19° SE
Meteor 1-29 3.0 19:32:14 10° NNE 19:35:42 57° E 19:39:08 10° S
Cosmos 1092 Rocket 3.9 19:30:25 10° N 19:36:40 76° E 19:42:48 10° SSE
SL-16 R/B 3.9 19:32:09 10° WSW 19:37:18 34° NW 19:42:29 10° NNE
Cosmos 839 Rocket 4.3 19:29:29 10° NW 19:37:28 84° NE 19:43:03 15° SE
Cosmos-2242 3.7 19:34:04 10° SSW 19:38:23 59° WNW 19:42:46 10° N
FENGYUN 3A 3.6 19:33:21 10° SSE 19:38:40 66° ENE 19:44:03 10° N
Cosmos 1805 Rocket 4.4 19:36:59 10° N 19:40:52 29° ENE 19:41:20 28° E
H-2A R/B 4.3 19:43:10 12° NE 19:43:10 12° NE 19:44:14 10° NNE
Cosmos 2221 3.6 19:45:08 26° ENE 19:45:08 26° ENE 19:47:56 10° NNE
CENTAUR R/B 2.5 19:40:03 10° SSW 19:46:03 62° ESE 19:52:52 10° NE
Cosmos 2026 Rocket 4.1 19:40:32 10° N 19:46:30 53° ENE 19:51:17 16° SSE
ISS -3.5 19:44:13 10° WSW 19:47:28 78° SSE 19:48:06 54° E
Cosmos 1655 Rocket 4.1 19:44:45 10° N 19:50:49 52° ENE 19:54:54 21° SE
Cosmos 1633 Rocket 4.5 19:48:23 10° NNE 19:50:59 21° NE 19:50:59 21° NE
Abrixas 2.3 19:50:07 10° WSW 19:53:07 85° S 19:53:12 82° ESE
Cosmos 2251 Rocket 3.8 19:49:51 10° S 19:54:45 43° ESE 19:59:42 10° NE
Cosmos 1634 Rocket 3.9 19:50:19 10° S 19:56:29 69° E 20:02:39 10° NNE
CZ-2D R/B 3.1 19:57:19 29° SSE 19:59:14 86° ENE 20:03:09 10° NNW
Cosmos 1328 3.6 19:55:52 10° N 19:59:52 85° E 20:01:42 31° SSE
Cosmos 1943 Rocket 2.2 19:55:01 10° NNW 20:00:37 63° ENE 20:02:50 36° SE
Cosmos 1331 Rocket 3.9 19:55:26 10° NNW 20:00:47 73° ENE 20:03:18 32° SE
SL-14 R/B 3.4 19:57:29 10° N 20:01:29 54° ENE 20:01:44 53° E
ERBS 2.2 20:02:18 10° NW 20:05:48 88° NNE 20:05:53 85° ESE
H-2A R/B 2.8 20:06:03 32° S 20:07:46 78° WSW 20:11:39 10° NNW
Aureole 3 4.4 20:02:58 10° N 20:08:44 42° ENE 20:09:09 41° E
Cosmos 2195 Rocket 4.4 20:02:38 10° N 20:09:01 86° E 20:15:09 11° S
Cosmos 1842 Rocket 4.3 20:07:16 10° SSW 20:11:31 54° WNW 20:15:50 10° N
Cosmos 2369 Rocket 2.9 20:06:23 10° NW 20:11:52 52° WSW 20:16:53 12° S
Cosmos 1302 Rocket 4.0 20:10:04 10° NNW 20:15:13 58° ENE 20:16:00 52° E
Cosmos 1943 3.2 20:10:51 10° SSW 20:16:29 80° WNW 20:22:09 10° NNE
Cosmos 1939 Rocket 4.2 20:19:19 28° NNE 20:19:19 28° NNE 20:21:33 10° N
Cosmos 1666 Rocket 4.0 20:16:04 10° N 20:19:41 46° NE 20:19:41 46° NE
SJ-11-01 4.2 20:21:45 61° ENE 20:21:47 61° ENE 20:26:26 10° N
Envisat 3.1 20:28:38 54° ENE 20:28:38 54° ENE 20:33:24 10° N
USA 215 3.1 20:25:37 31° ENE 20:28:55 68° SE 20:35:24 10° SW
Cosmos 158 Rocket 4.3 20:24:36 10° SW 20:29:25 59° WNW 20:34:16 10° NNE
Gbstr 26 Del rocket 3.3 20:27:30 10° WSW 20:32:12 88° SSE 20:32:55 67° ENE
Helios 1B rocket 4.4 20:29:53 10° N 20:33:28 29° WNW 20:37:02 10° SW
ATLAS 5 CENTAUR R/B 4.1 20:43:03 10° W 20:47:05 23° NNW 20:51:25 10° NNE
Sich 1 3.9 20:45:34 10° N 20:48:36 44° N 20:48:36 44° N
Cosmos 2058 4.3 20:51:44 10° NNW 20:55:32 36° W 20:55:45 35° W
ERS-1 Rocket 3.1 20:56:03 74° WNW 20:56:03 74° WNW 21:00:46 10° NNW
H-2A R/B 4.1 20:59:00 15° NNE 20:59:00 15° NNE 21:00:23 10° NNE
Cosmos 1656 Rocket 3.7 20:55:19 10° NNW 21:00:08 70° NNW 21:00:08 70° NNW
UNK 4.1 20:43:07 10° WNW 21:01:22 85° SSW 21:02:05 72° SE
Cosmos 2180 Rocket 4.4 21:00:27 50° SSW 21:02:10 79° W 21:08:21 10° N
ARGOS 4.4 21:09:53 31° NNE 21:09:53 31° NNE 21:12:56 10° N
H-2A R/B 4.0 21:20:18 26° NNW 21:20:18 26° NNW 21:22:16 10° NNW
Cosmos 2221 4.4 21:21:55 28° WNW 21:21:55 28° WNW 21:25:30 10° NNW
Cosmos 2266 Rocket 4.2 21:23:51 10° NNW 21:29:24 66° NW 21:29:24 66° NW
CENTAUR R/B 3.8 21:31:12 10° WSW 21:37:09 39° NNW 21:43:51 10° NE
Cosmos 1980 Rocket 4.4 21:38:22 10° N 21:40:28 16° NNE 21:40:28 16° NNE
Cosmos 1943 Rocket 4.1 21:39:39 10° NW 21:43:51 22° W 21:44:23 22° WSW
USA 215 4.0 22:13:01 47° WNW 22:13:01 47° WNW 22:18:06 10° W
CZ-4C R/B 4.5 22:24:52 10° NNW 22:29:47 22° NNE 22:29:49 22° NNE
ATLAS 3B R/B 4.3 22:38:06 10° NNW 22:42:59 27° N 22:42:59 27° N
